#timestamp,LO_Frequency,Hit,StdDev 
1663502415.7,286046997.3,N
1663502435.5,286046996.9,N
1663502455.4,286046999.0,N
1663502475.2,286046999.4,N
1663502495.0,286046998.3,N
1663502496.0,286046998.3,N
1663502515.8,286046998.2,N
1663502535.6,286046998.2,N
1663502555.5,286046998.7,N
1663502575.3,286046998.4,N
1663502595.1,286046998.1,N
1663502615.9,286047000.6,N
1663502635.7,286047000.7,N
1663502655.6,286047000.5,N
1663502675.4,286046998.2,N
1663502695.2,286046999.1,N
1663502715.1,286046996.5,Y
1663502716.0,286046996.5,P
1663502735.8,286046998.2,N
1663502755.6,286046999.6,N
1663502775.5,286046998.6,N
1663502795.3,286046998.2,N
1663502815.2,286046998.8,N
1663502835.9,286047001.1,N
1663502855.7,286047001.0,N
1663502875.6,286047002.8,N
1663502895.4,286047002.5,N
1663502915.2,286047000.4,N
1663502935.1,286046999.8,N
1663502936.0,286046999.8,N
1663502955.8,286046998.5,N
1663502975.7,286046999.3,N
1663502995.5,286047001.2,N
1663503015.3,286046999.3,N
1663503035.2,286046999.0,N
1663503055.0,286046996.5,N
1663503055.9,286046996.5,N
1663503075.8,286046997.3,N
1663503095.6,286046996.9,N
1663503115.4,286046998.8,N
1663503135.3,286047000.3,N
1663503155.1,286047000.3,N
1663503175.9,286047002.3,N
1663503195.7,286046999.7,N
1663503215.5,286046999.7,N
1663503235.4,286046999.8,N
1663503255.2,286047002.3,N
1663503275.0,286047001.1,N
1663503276.0,286047001.1,N
1663503295.8,286047000.5,N
1663503315.6,286047001.0,N
1663503335.5,286047000.5,N
1663503355.3,286046999.7,N
1663503375.1,286047002.8,N
1663503395.9,286047002.4,N
1663503415.7,286047000.2,N
1663503435.5,286047002.8,N
1663503455.4,286047001.4,N
1663503475.2,286047001.8,N
1663503495.1,286047002.4,N
1663503496.0,286047002.4,N
1663503515.8,286047001.7,N
1663503535.6,286047000.1,N
1663503555.5,286046999.9,N
1663503575.3,286047000.9,N
1663503595.2,286046998.6,N
1663503615.9,286046998.4,N
1663503635.7,286047001.0,N
1663503655.6,286047001.0,N
1663503675.4,286047000.0,N
1663503695.2,286046999.9,N
1663503715.1,286047000.1,N
1663503716.0,286047000.1,N
1663503735.8,286047002.8,N
1663503755.7,286047002.8,N
1663503775.5,286047002.8,N
1663503795.3,286047002.1,N
1663503815.2,286047002.8,N
1663503835.0,286047001.2,N
1663503835.9,286047001.2,N
1663503855.7,286047000.6,N
1663503875.6,286047000.4,N
1663503895.4,286046999.7,N
1663503915.3,286047000.2,N
1663503935.1,286047000.9,N
1663503936.0,286047000.9,N
1663503955.8,286046998.3,N
1663503975.7,286046996.9,N
1663503995.5,286046999.1,N
1663504015.3,286046998.6,N
1663504035.2,286046999.3,N
1663504055.0,286046999.3,N
1663504055.9,286046999.3,N
1663504075.8,286047000.9,N
1663504095.6,286047000.1,N
1663504115.4,286047002.8,N
1663504135.3,286047000.0,N
1663504155.1,286047000.2,N
1663504175.8,286046999.1,N
1663504195.7,286046998.2,N
1663504215.5,286047000.6,N
1663504235.4,286047000.0,N
1663504255.2,286047000.2,N
1663504275.0,286047000.2,N
1663504275.9,286047000.2,N
1663504295.8,286047002.5,N
1663504315.6,286046999.8,N
1663504335.4,286046999.8,N
1663504355.3,286047000.1,N
1663504375.1,286047000.1,N
1663504395.9,286047000.4,N
1663504415.7,286046998.6,N
1663504435.5,286046999.3,N
1663504455.4,286047001.1,N
1663504475.2,286047000.5,N
1663504495.0,286047000.9,N
1663504496.0,286047000.9,N
1663504515.8,286047000.7,N
1663504535.6,286047000.1,N
1663504555.5,286046998.1,N
1663504575.3,286046998.4,N
1663504595.1,286047000.4,N
1663504615.9,286047000.3,N
1663504635.7,286046998.1,N
1663504655.6,286047002.8,N
1663504675.4,286046999.8,N
1663504695.2,286047000.5,N
1663504715.1,286047001.1,N
1663504716.0,286047001.1,N
1663504735.8,286046999.3,N
1663504755.7,286047000.8,N
1663504775.5,286046998.1,N
1663504795.3,286046998.5,N
1663504815.2,286047000.9,N
1663504835.9,286047000.4,N
1663504855.7,286047002.8,N
1663504875.6,286046999.8,N
1663504895.4,286046999.8,N
1663504915.3,286046999.9,N
1663504935.1,286047002.5,N
1663504936.0,286047002.5,N
1663504955.8,286047001.8,N
1663504975.7,286047002.5,N
1663504995.5,286047003.7,N
1663505015.3,286047004.3,N
1663505035.2,286047001.5,N
1663505055.0,286047001.3,N
1663505055.9,286047001.3,N
1663505075.8,286047003.4,N
1663505095.6,286047004.0,N
1663505115.4,286047003.8,N
1663505135.3,286047005.6,Y
1663505155.1,286047001.5,P
1663505175.8,286047001.6,P
1663505195.7,286047011.9,P
1663505215.5,286047002.0,N
1663505235.4,286047004.0,N
1663505255.2,286047001.5,N
1663505275.0,286047001.6,N
1663505275.9,286047001.6,N
1663505295.8,286047001.3,N
1663505315.6,286047004.3,N
1663505335.4,286047003.9,N
1663505355.3,286047003.1,N
1663505375.1,286047003.5,N
1663505395.9,286047001.6,N
1663505415.7,286047001.6,N
1663505435.5,286047001.7,N
1663505455.4,286047004.0,N
1663505475.2,286047003.8,N
1663505495.1,286047003.1,N
1663505496.0,286047003.1,N
1663505515.8,286047001.4,N
1663505535.6,286047004.1,N
1663505555.5,286047004.1,N
1663505575.3,286047001.3,N
1663505595.1,286047001.9,N
1663505615.9,286047002.2,N
1663505635.7,286047001.9,N
1663505655.6,286047000.6,N
1663505675.4,286047000.9,N
1663505695.2,286047000.8,N
1663505715.1,286046998.4,N
1663505716.0,286046998.4,N
1663505735.8,286046998.1,N
1663505755.6,286046998.4,N
1663505775.5,286046996.5,N
1663505795.3,286046999.5,N
1663505815.2,286046996.7,N
1663505835.9,286046999.1,N
1663505855.7,286046998.9,N
1663505875.6,286046998.4,N
1663505895.4,286046996.8,N
1663505915.2,286046997.6,N
1663505935.1,286046997.1,N
1663505936.0,286046997.1,N
1663505955.8,286046996.7,N
1663505975.7,286046997.0,N
1663505995.5,286046999.1,N
